DHK1201 LIME-EHAM

Flight info

Callsign DHK1201
Flight time N/A
Altitude 34000
Route PEPAG DCT CANNE DCT SOSON DCT BEGAR DCT GTQ N852 DIK M624 BUB Y28 HELEN
Aircraft B77L/H-SDE1E2E3FGHIJ2J3J4J5M1RWXY/LB1D1

Departure

Time 2026-04-29 20:19
Airport Il Caravaggio International Airport (LIME)

Arrival

Time N/A
Airport Amsterdam Airport Schiphol (EHAM)
Time Latitude Longitude Altitude Speed Heading
2026-04-29 19:38 45.67124 9.70350 791 ft 0 kts 194°
2026-04-29 20:11 45.67101 9.70342 791 ft 0 kts 194°
2026-04-29 20:11 45.67064 9.70325 791 ft 11 kts 208°
2026-04-29 20:11 45.67052 9.70250 791 ft 8 kts 277°
2026-04-29 20:11 45.67066 9.70153 791 ft 10 kts 283°
2026-04-29 20:12 45.67084 9.70053 791 ft 10 kts 286°
2026-04-29 20:12 45.67104 9.69954 791 ft 10 kts 286°
2026-04-29 20:12 45.67110 9.69916 791 ft 3 kts 269°
2026-04-29 20:12 45.67087 9.69902 791 ft 4 kts 182°
2026-04-29 20:13 45.67057 9.69911 791 ft 6 kts 162°
2026-04-29 20:13 45.67006 9.69943 792 ft 15 kts 155°
2026-04-29 20:13 45.66881 9.70034 792 ft 15 kts 153°
2026-04-29 20:13 45.66787 9.70103 792 ft 15 kts 152°
2026-04-29 20:14 45.66711 9.70201 792 ft 15 kts 117°
2026-04-29 20:14 45.66679 9.70345 792 ft 15 kts 105°
2026-04-29 20:14 45.66651 9.70492 792 ft 15 kts 105°
2026-04-29 20:14 45.66623 9.70642 792 ft 18 kts 105°
2026-04-29 20:15 45.66584 9.70845 792 ft 22 kts 105°
2026-04-29 20:15 45.66544 9.71048 792 ft 11 kts 105°
2026-04-29 20:15 45.66517 9.71174 792 ft 22 kts 109°
2026-04-29 20:15 45.66459 9.71446 792 ft 34 kts 104°
2026-04-29 20:16 45.66446 9.71666 792 ft 0 kts 76°
2026-04-29 20:16 45.66448 9.71675 792 ft 8 kts 74°
2026-04-29 20:17 45.66470 9.71867 792 ft 23 kts 98°
2026-04-29 20:17 45.66429 9.72093 792 ft 23 kts 104°
2026-04-29 20:17 45.66393 9.72298 792 ft 18 kts 104°
2026-04-29 20:17 45.66376 9.72396 792 ft 5 kts 98°
2026-04-29 20:18 45.66394 9.72448 792 ft 10 kts 33°
2026-04-29 20:18 45.66457 9.72417 792 ft 11 kts 297°
2026-04-29 20:18 45.66493 9.72238 792 ft 34 kts 285°
2026-04-29 20:18 45.66622 9.71567 792 ft 111 kts 284°
2026-04-29 20:19 45.66881 9.70135 793 ft 183 kts 288°
2026-04-29 20:19 45.67235 9.68279 1395 ft 189 kts 285°
2026-04-29 20:19 45.67425 9.66417 2129 ft 192 kts 255°
2026-04-29 20:19 45.66725 9.64866 2583 ft 188 kts 208°
2026-04-29 20:20 45.65604 9.63955 3145 ft 188 kts 211°
2026-04-29 20:20 45.64556 9.62795 3750 ft 192 kts 217°
2026-04-29 20:20 45.63547 9.61507 4200 ft 205 kts 220°
2026-04-29 20:20 45.62495 9.60075 4479 ft 210 kts 221°
2026-04-29 20:21 45.61415 9.58549 4701 ft 230 kts 223°
2026-04-29 20:21 45.60247 9.56889 5215 ft 241 kts 220°
2026-04-29 20:21 45.58775 9.55764 5836 ft 243 kts 192°
2026-04-29 20:21 45.57077 9.55462 6488 ft 251 kts 184°
2026-04-29 20:22 45.55295 9.55358 7121 ft 260 kts 182°
2026-04-29 20:22 45.53463 9.55258 7836 ft 264 kts 182°
2026-04-29 20:22 45.51608 9.55172 8536 ft 270 kts 178°
2026-04-29 20:22 45.49799 9.55910 9091 ft 277 kts 146°
2026-04-29 20:23 45.48512 9.57905 9800 ft 275 kts 114°
2026-04-29 20:23 45.47976 9.60499 10430 ft 273 kts 95°
2026-04-29 20:23 45.48159 9.63183 10980 ft 275 kts 65°
2026-04-29 20:23 45.49183 9.65475 11605 ft 277 kts 38°
2026-04-29 20:24 45.50824 9.66818 12413 ft 273 kts 12°
2026-04-29 20:24 45.52681 9.66929 13192 ft 276 kts 347°
2026-04-29 20:24 45.54497 9.65807 13521 ft 299 kts 325°
2026-04-29 20:24 45.56180 9.63883 13913 ft 320 kts 320°
2026-04-29 20:25 45.57893 9.61757 14547 ft 331 kts 319°
2026-04-29 20:25 45.59648 9.59472 14968 ft 349 kts 317°
2026-04-29 20:25 45.61462 9.57084 15694 ft 358 kts 318°
2026-04-29 20:25 45.63317 9.54678 16555 ft 362 kts 318°
2026-04-29 20:26 45.65202 9.52273 17522 ft 364 kts 318°
2026-04-29 20:26 45.67107 9.49878 18428 ft 367 kts 318°
2026-04-29 20:26 45.69044 9.47465 19207 ft 370 kts 318°
2026-04-29 20:26 45.70999 9.45041 19953 ft 374 kts 318°
2026-04-29 20:27 45.72957 9.42621 20659 ft 378 kts 318°
2026-04-29 20:27 45.73625 9.41796 20898 ft 380 kts 318°
2026-04-29 20:27 45.77014 9.37613 22138 ft 386 kts 318°
2026-04-29 20:27 45.79054 9.35091 22941 ft 389 kts 317°
2026-04-29 20:28 45.81079 9.32587 23768 ft 390 kts 317°
2026-04-29 20:28 45.83140 9.30036 24367 ft 393 kts 317°
2026-04-29 20:28 45.85220 9.27456 25023 ft 396 kts 317°
2026-04-29 20:28 45.87305 9.24870 25677 ft 398 kts 317°
2026-04-29 20:29 45.89411 9.22252 26292 ft 401 kts 317°
2026-04-29 20:29 45.91531 9.19616 26927 ft 404 kts 317°
2026-04-29 20:29 45.93664 9.16963 27556 ft 407 kts 317°
2026-04-29 20:29 45.95813 9.14284 28162 ft 410 kts 316°
2026-04-29 20:30 45.97974 9.11585 28685 ft 413 kts 317°
2026-04-29 20:30 45.99416 9.09781 29150 ft 415 kts 317°
2026-04-29 20:30 46.02306 9.06174 30183 ft 413 kts 316°
2026-04-29 20:30 46.04455 9.03489 31057 ft 405 kts 316°
2026-04-29 20:31 46.05889 9.01693 31615 ft 402 kts 316°
2026-04-29 20:31 46.07962 8.99093 32266 ft 399 kts 316°
2026-04-29 20:31 46.10052 8.96469 32907 ft 397 kts 316°
2026-04-29 20:31 46.12123 8.93867 33616 ft 393 kts 316°
2026-04-29 20:32 46.14193 8.91291 34100 ft 393 kts 318°
2026-04-29 20:32 46.16439 8.88952 34097 ft 404 kts 324°
2026-04-29 20:32 46.21472 8.84930 34088 ft 422 kts 332°
2026-04-29 20:33 46.26848 8.81461 34106 ft 425 kts 332°
2026-04-29 20:33 46.32305 8.77964 34100 ft 430 kts 332°
2026-04-29 20:34 46.37745 8.74440 34125 ft 433 kts 332°
2026-04-29 20:34 46.43244 8.70851 34124 ft 435 kts 331°
2026-04-29 20:35 46.48780 8.67230 34152 ft 436 kts 332°
2026-04-29 20:35 46.54297 8.63612 34143 ft 434 kts 331°
2026-04-29 20:36 46.59785 8.60007 34141 ft 430 kts 331°
2026-04-29 20:36 46.65119 8.56135 34151 ft 427 kts 328°
2026-04-29 20:37 46.70340 8.52150 34155 ft 424 kts 328°
2026-04-29 20:37 46.75581 8.48141 34151 ft 425 kts 329°
2026-04-29 20:38 46.80833 8.44132 34148 ft 427 kts 329°
2026-04-29 20:38 46.86097 8.40113 34200 ft 427 kts 329°
2026-04-29 20:39 46.91390 8.36066 34171 ft 429 kts 329°
2026-04-29 20:39 46.96687 8.32007 34157 ft 430 kts 329°
2026-04-29 20:40 47.01999 8.27925 34163 ft 430 kts 329°
2026-04-29 20:40 47.07264 8.23872 34164 ft 430 kts 329°
2026-04-29 20:41 47.12560 8.19785 34169 ft 431 kts 329°
2026-04-29 20:41 47.17881 8.15671 34167 ft 432 kts 329°
2026-04-29 20:42 47.23200 8.11548 34164 ft 432 kts 329°
2026-04-29 20:42 47.28532 8.07404 34170 ft 433 kts 329°
2026-04-29 20:43 47.33832 8.03285 34174 ft 434 kts 330°
2026-04-29 20:43 47.39180 7.99106 34179 ft 436 kts 330°
2026-04-29 20:44 47.44541 7.94895 34191 ft 437 kts 330°
2026-04-29 20:44 47.49920 7.90684 34181 ft 438 kts 330°
2026-04-29 20:45 47.55324 7.86441 34184 ft 442 kts 331°
2026-04-29 20:45 47.60744 7.82175 34190 ft 446 kts 331°
2026-04-29 20:46 47.66238 7.77828 34194 ft 450 kts 331°
2026-04-29 20:46 47.71746 7.73473 34181 ft 445 kts 331°
2026-04-29 20:47 47.77169 7.69166 34182 ft 440 kts 332°
2026-04-29 20:47 47.82619 7.64823 34192 ft 446 kts 332°
2026-04-29 20:48 47.88069 7.60484 34162 ft 447 kts 332°
2026-04-29 20:48 47.93627 7.56055 34197 ft 456 kts 332°
2026-04-29 20:49 47.99250 7.51638 34201 ft 456 kts 333°
2026-04-29 20:49 48.04876 7.47218 34219 ft 456 kts 333°
2026-04-29 20:50 48.10494 7.42780 34212 ft 456 kts 333°
2026-04-29 20:50 48.16076 7.38356 34213 ft 456 kts 333°
2026-04-29 20:51 48.21687 7.33895 34206 ft 457 kts 333°
2026-04-29 20:51 48.27320 7.29402 34205 ft 458 kts 334°
2026-04-29 20:52 48.32954 7.24902 34221 ft 458 kts 334°
2026-04-29 20:52 48.38580 7.20399 34211 ft 458 kts 333°
2026-04-29 20:53 48.44208 7.15880 34215 ft 458 kts 334°
2026-04-29 20:53 48.49837 7.11347 34223 ft 459 kts 334°
2026-04-29 20:54 48.58287 7.04524 34226 ft 462 kts 334°
2026-04-29 20:55 48.63961 6.99926 34232 ft 463 kts 334°
2026-04-29 20:55 48.69649 6.95304 34201 ft 463 kts 334°
2026-04-29 20:56 48.75333 6.90676 34218 ft 464 kts 334°
2026-04-29 20:56 48.81028 6.86028 34228 ft 465 kts 334°
2026-04-29 20:57 48.86680 6.81403 34223 ft 465 kts 334°
2026-04-29 20:57 48.92378 6.76724 34228 ft 466 kts 334°
2026-04-29 20:58 48.98081 6.72040 34236 ft 466 kts 335°
2026-04-29 20:58 49.03966 6.67993 34242 ft 463 kts 340°
2026-04-29 20:59 49.09914 6.64164 34245 ft 464 kts 340°
2026-04-29 20:59 49.15851 6.60269 34268 ft 464 kts 340°
2026-04-29 21:00 49.21792 6.56348 34228 ft 465 kts 340°
2026-04-29 21:00 49.27719 6.52401 34259 ft 465 kts 340°
2026-04-29 21:01 49.33619 6.48463 34259 ft 465 kts 340°
2026-04-29 21:01 49.39539 6.44413 34264 ft 467 kts 338°
2026-04-29 21:02 49.45403 6.40128 34266 ft 467 kts 339°
2026-04-29 21:02 49.51340 6.36093 34253 ft 465 kts 341°
2026-04-29 21:03 49.57331 6.32322 34252 ft 465 kts 341°
2026-04-29 21:03 49.63312 6.28464 34252 ft 465 kts 341°
2026-04-29 21:04 49.69227 6.24502 34265 ft 466 kts 340°
2026-04-29 21:04 49.75150 6.20455 34266 ft 467 kts 340°
2026-04-29 21:05 49.81100 6.16408 34266 ft 467 kts 340°
2026-04-29 21:05 49.86771 6.11412 34275 ft 473 kts 328°
2026-04-29 21:06 49.91777 6.04778 34290 ft 479 kts 319°
2026-04-29 21:06 49.96542 5.97537 34281 ft 479 kts 320°
2026-04-29 21:07 50.01352 5.90358 34277 ft 479 kts 320°
2026-04-29 21:07 50.05344 5.84391 34265 ft 480 kts 320°
2026-04-29 21:08 50.10963 5.75956 34282 ft 480 kts 320°
2026-04-29 21:08 50.15763 5.68727 34285 ft 480 kts 320°
2026-04-29 21:09 50.20564 5.61470 34279 ft 480 kts 320°
2026-04-29 21:09 50.25360 5.54202 34278 ft 480 kts 320°
2026-04-29 21:10 50.30119 5.46966 34258 ft 475 kts 320°
2026-04-29 21:10 50.32446 5.43410 34257 ft 460 kts 320°
2026-04-29 21:10 50.34704 5.39957 34263 ft 453 kts 320°
2026-04-29 21:11 50.39290 5.32963 34303 ft 468 kts 320°
2026-04-29 21:11 50.44041 5.25693 34304 ft 484 kts 319°
2026-04-29 21:12 50.48878 5.18248 34274 ft 485 kts 319°
2026-04-29 21:12 50.53682 5.10826 34254 ft 484 kts 319°
2026-04-29 21:13 50.58442 5.03452 34297 ft 482 kts 319°
2026-04-29 21:13 50.63229 4.96029 34283 ft 483 kts 319°
2026-04-29 21:14 50.68005 4.88600 34285 ft 483 kts 319°
2026-04-29 21:14 50.72799 4.81149 34287 ft 483 kts 319°
2026-04-29 21:15 50.77559 4.73715 34125 ft 476 kts 319°
2026-04-29 21:15 50.79910 4.70023 33519 ft 474 kts 319°
2026-04-29 21:15 50.81448 4.67603 33203 ft 470 kts 319°
2026-04-29 21:15 50.83763 4.63959 32704 ft 465 kts 319°
2026-04-29 21:16 50.86780 4.59204 32078 ft 459 kts 319°
2026-04-29 21:16 50.89003 4.55604 31597 ft 456 kts 315°
2026-04-29 21:16 50.90395 4.53005 31274 ft 456 kts 311°
2026-04-29 21:16 50.92215 4.48903 30811 ft 455 kts 305°
2026-04-29 21:17 50.94381 4.43248 30176 ft 451 kts 304°
2026-04-29 21:17 50.95470 4.40372 29806 ft 449 kts 304°
2026-04-29 21:17 50.97052 4.36203 29340 ft 444 kts 304°
2026-04-29 21:17 50.98647 4.32031 28883 ft 440 kts 304°
2026-04-29 21:18 51.00232 4.27905 28419 ft 436 kts 304°
2026-04-29 21:18 51.01773 4.23905 27954 ft 432 kts 304°
2026-04-29 21:18 51.03336 4.19846 27501 ft 429 kts 304°
2026-04-29 21:18 51.04885 4.15820 27066 ft 425 kts 304°
2026-04-29 21:19 51.06421 4.11818 26622 ft 422 kts 304°
2026-04-29 21:19 51.07963 4.07868 26181 ft 418 kts 307°
2026-04-29 21:19 51.09739 4.04265 25842 ft 410 kts 315°
2026-04-29 21:19 51.11726 4.01057 25420 ft 404 kts 321°
2026-04-29 21:20 51.13905 3.98262 25000 ft 399 kts 327°
2026-04-29 21:20 51.16142 3.95678 24582 ft 397 kts 328°
2026-04-29 21:20 51.18346 3.93119 24169 ft 396 kts 327°
2026-04-29 21:20 51.20556 3.90513 23704 ft 395 kts 327°
2026-04-29 21:21 51.22808 3.88087 23189 ft 385 kts 338°
2026-04-29 21:21 51.25314 3.86875 22774 ft 372 kts 358°
2026-04-29 21:21 51.27860 3.86738 22360 ft 363 kts
2026-04-29 21:21 51.30380 3.86719 21940 ft 360 kts
2026-04-29 21:22 51.32890 3.86699 21440 ft 361 kts
2026-04-29 21:22 51.35382 3.86671 21011 ft 359 kts
2026-04-29 21:22 51.37880 3.86631 20591 ft 357 kts
2026-04-29 21:22 51.40364 3.86584 20162 ft 356 kts
2026-04-29 21:23 51.42831 3.86531 19756 ft 354 kts
2026-04-29 21:23 51.45287 3.86474 19347 ft 352 kts
2026-04-29 21:23 51.47727 3.86416 18946 ft 350 kts
2026-04-29 21:23 51.50125 3.86359 18531 ft 348 kts
2026-04-29 21:24 51.52543 3.86300 18060 ft 346 kts
2026-04-29 21:24 51.54948 3.86242 17635 ft 344 kts
2026-04-29 21:24 51.57328 3.86188 17236 ft 341 kts
2026-04-29 21:24 51.59690 3.86146 16824 ft 337 kts
2026-04-29 21:25 51.62030 3.86124 16438 ft 334 kts
2026-04-29 21:25 51.64352 3.86108 16024 ft 332 kts
2026-04-29 21:25 51.66618 3.86048 15645 ft 329 kts
2026-04-29 21:25 51.68892 3.86025 15230 ft 326 kts
2026-04-29 21:26 51.71151 3.86136 14783 ft 321 kts 12°
2026-04-29 21:26 51.73244 3.87247 14321 ft 319 kts 36°
2026-04-29 21:26 51.74934 3.89474 14124 ft 310 kts 45°
2026-04-29 21:26 51.76551 3.91830 13828 ft 316 kts 46°
2026-04-29 21:27 51.78184 3.94270 13361 ft 326 kts 46°
2026-04-29 21:27 51.79858 3.96749 12838 ft 328 kts 45°
2026-04-29 21:27 51.81538 3.99201 12431 ft 325 kts 45°
2026-04-29 21:27 51.83213 4.01634 12326 ft 323 kts 45°
2026-04-29 21:28 51.84916 4.04085 11752 ft 327 kts 44°
2026-04-29 21:28 51.86592 4.06472 11130 ft 329 kts 44°
2026-04-29 21:28 51.88309 4.08951 10911 ft 327 kts 45°
2026-04-29 21:28 51.89981 4.11342 10748 ft 316 kts 40°
2026-04-29 21:29 51.91980 4.12839 10222 ft 320 kts 17°
2026-04-29 21:29 51.94152 4.13074 10152 ft 307 kts
2026-04-29 21:29 51.96258 4.12854 9913 ft 299 kts
2026-04-29 21:29 51.98304 4.12590 9753 ft 286 kts
2026-04-29 21:30 52.00246 4.12359 9672 ft 276 kts
2026-04-29 21:30 52.02160 4.12152 9512 ft 275 kts
2026-04-29 21:30 52.04066 4.11942 9357 ft 274 kts
2026-04-29 21:30 52.05970 4.11792 9079 ft 276 kts
2026-04-29 21:31 52.07826 4.12309 8731 ft 259 kts 30°
2026-04-29 21:31 52.09403 4.13552 8488 ft 261 kts 31°
2026-04-29 21:31 52.11045 4.14853 8090 ft 261 kts 30°
2026-04-29 21:31 52.12673 4.16112 7917 ft 258 kts 30°
2026-04-29 21:32 52.14306 4.17376 7593 ft 260 kts 31°
2026-04-29 21:32 52.15933 4.18657 7294 ft 259 kts 31°
2026-04-29 21:32 52.17533 4.19991 6995 ft 257 kts 33°
2026-04-29 21:32 52.19084 4.21408 6678 ft 253 kts 35°
2026-04-29 21:33 52.20550 4.22947 6259 ft 247 kts 47°
2026-04-29 21:33 52.21398 4.25205 6036 ft 224 kts 76°
2026-04-29 21:33 52.21859 4.27630 5814 ft 239 kts 75°
2026-04-29 21:33 52.22391 4.30241 5659 ft 246 kts 73°
2026-04-29 21:34 52.22959 4.32846 5383 ft 240 kts 73°
2026-04-29 21:34 52.23457 4.35415 4962 ft 228 kts 84°
2026-04-29 21:34 52.23289 4.37812 4724 ft 210 kts 111°
2026-04-29 21:34 52.23102 4.38564 4721 ft 212 kts 112°